Weather History for KCPC - March, 2013

Change the Weather History Date:

Monday, March 18, 2013

  Actual Average (KLBT) Record (KLBT)
Temperature  
Mean Temperature 55 °F 55 °F  
Max Temperature 65 °F 67 °F 82 °F (2011)
Min Temperature 45 °F 43 °F 25 °F (2007)
Degree Days  
Heating Degree Days 10 11  
Month to date heating degree days 232  
Since 1 July heating degree days 2462  
Cooling Degree Days 0 0  
Month to date cooling degree days 0  
Year to date cooling degree days 3  
Growing Degree Days 5 (Base 50)    
Moisture  
Dew Point 47 °F    
Average Humidity 79    
Maximum Humidity 94    
Minimum Humidity 61    
Precipitation  
Precipitation 0.00 in 0.11 in 0.34 in (2013)
Month to date precipitation 1.95  
Year to date precipitation 7.82  
Sea Level Pressure  
Sea Level Pressure 30.03 in    
Wind  
Wind Speed 7 mph (ENE)    
Max Wind Speed 12 mph    
Max Gust Speed 16 mph    
Visibility 9 miles    
Events      
T = Trace of Precipitation, MM = Missing Value Source: NWS Daily Summary

Daily Weather History Graph

Daily Weather History Graph

Search for Another Location

Airport or City:

Trip Planner

Search our weather history database for the weather conditions in past years. The results will help you decide how hot, cold, wet, or windy it might be!

Date:

Astronomy

Mar. 18, 2013 Rise Set
Actual Time 7:20 AM EDT 7:25 PM EDT
Civil Twilight 6:55 AM EDT 7:50 PM EDT
Nautical Twilight 6:26 AM EDT 8:19 PM EDT
Astronomical Twilight 5:57 AM EDT 8:48 PM EDT
Moon 11:33 AM EDT (3/18) 1:08 AM EDT (3/18)
Length of Visible Light 12h 54m
Length of Day
12h 04m
Waxing Crescent, 40% of the Moon is Illuminated
Mar 18
Waxing Crescent
Mar 19
First Quarter
Mar 27
Full
Apr 3
Last Quarter
Apr 10
New

Hourly Weather History & Observations

Time (EDT) Temp. Windchill Dew Point Humidity Pressure Visibility Wind Dir Wind Speed Gust Speed Precip Events Conditions
12:15 AM 51.6 °F - 46.8 °F 83% 30.08 in 10.0 mi ENE 9.2 mph - N/A   Scattered Clouds
12:35 AM 51.3 °F - 46.6 °F 84% 30.09 in 10.0 mi ENE 10.4 mph - N/A   Scattered Clouds
12:55 AM 51.3 °F - 46.6 °F 84% 30.09 in 10.0 mi ENE 8.1 mph - N/A   Mostly Cloudy
1:15 AM 50.4 °F - 45.5 °F 83% 30.09 in 10.0 mi ENE 8.1 mph - N/A   Overcast
1:35 AM 50.0 °F - 44.8 °F 82% 30.09 in 10.0 mi ENE 11.5 mph - N/A   Mostly Cloudy
1:55 AM 50.0 °F - 44.8 °F 82% 30.10 in 10.0 mi ENE 10.4 mph - N/A   Mostly Cloudy
2:15 AM 49.6 °F - 44.8 °F 83% 30.09 in 10.0 mi NE 8.1 mph - N/A   Mostly Cloudy
2:35 AM 49.3 °F - 44.1 °F 82% 30.09 in 10.0 mi NE 6.9 mph - N/A   Mostly Cloudy
2:55 AM 48.7 °F - 43.7 °F 83% 30.08 in 10.0 mi NE 6.9 mph - N/A   Mostly Cloudy
3:15 AM 48.4 °F - 43.2 °F 82% 30.09 in 10.0 mi NE 8.1 mph - N/A   Mostly Cloudy
3:35 AM 47.8 °F - 42.8 °F 83% 30.08 in 10.0 mi NE 11.5 mph 16.1 mph N/A   Mostly Cloudy
3:55 AM 47.7 °F - 42.4 °F 82% 30.08 in 10.0 mi ENE 8.1 mph - N/A   Mostly Cloudy
4:15 AM 47.5 °F - 42.1 °F 82% 30.07 in 10.0 mi ENE 10.4 mph - N/A   Mostly Cloudy
4:35 AM 47.3 °F - 41.9 °F 82% 30.08 in 10.0 mi NE 6.9 mph - N/A   Mostly Cloudy
4:55 AM 47.3 °F - 41.9 °F 82% 30.08 in 10.0 mi NE 5.8 mph - N/A   Overcast
5:15 AM 46.9 °F - 41.2 °F 80% 30.08 in 10.0 mi NE 8.1 mph - N/A   Overcast
5:35 AM 46.8 °F - 41.0 °F 80% 30.09 in 10.0 mi NNE 5.8 mph - N/A   Mostly Cloudy
5:55 AM 46.0 °F 43.9 °F 41.5 °F 84% 30.09 in 10.0 mi NNE 4.6 mph - N/A   Mostly Cloudy
6:15 AM 46.2 °F 44.1 °F 41.9 °F 85% 30.10 in 10.0 mi NE 4.6 mph - N/A   Light Drizzle
6:35 AM 46.0 °F 43.1 °F 42.4 °F 87% 30.09 in 10.0 mi ENE 5.8 mph - N/A   Scattered Clouds
6:55 AM 45.9 °F 42.3 °F 42.1 °F 87% 30.10 in 10.0 mi NE 6.9 mph - N/A   Scattered Clouds
7:15 AM 45.9 °F 42.9 °F 41.9 °F 86% 30.11 in 10.0 mi North 5.8 mph - N/A   Mostly Cloudy
7:35 AM 45.5 °F 42.5 °F 41.4 °F 85% 30.12 in 10.0 mi NNE 5.8 mph - N/A   Overcast
7:55 AM 45.5 °F 44.2 °F 41.4 °F 85% 30.13 in 10.0 mi NNE 3.5 mph - N/A   Overcast
8:15 AM 45.5 °F 42.5 °F 41.7 °F 87% 30.12 in 7.0 mi NE 5.8 mph - N/A   Overcast
8:35 AM 45.9 °F 42.9 °F 41.9 °F 86% 30.11 in 7.0 mi NNE 5.8 mph - N/A   Scattered Clouds
8:55 AM 46.6 °F - 41.9 °F 84% 30.12 in 7.0 mi NE 5.8 mph - N/A   Mostly Cloudy
9:15 AM 47.1 °F - 42.4 °F 84% 30.12 in 7.0 mi NE 9.2 mph - N/A   Overcast
9:35 AM 47.3 °F - 42.3 °F 83% 30.13 in 7.0 mi NNE 5.8 mph - N/A   Overcast
9:55 AM 47.3 °F - 42.4 °F 83% 30.14 in 7.0 mi North 3.5 mph - N/A   Overcast
10:15 AM 48.4 °F - 43.3 °F 83% 30.12 in 7.0 mi NE 8.1 mph - N/A   Overcast
10:35 AM 48.7 °F - 43.3 °F 82% 30.11 in 7.0 mi NE 10.4 mph - N/A   Overcast
10:55 AM 49.3 °F - 43.9 °F 82% 30.11 in 7.0 mi ENE 9.2 mph - N/A   Overcast
11:15 AM 49.5 °F - 44.2 °F 82% 30.11 in 7.0 mi ENE 6.9 mph - N/A   Overcast
11:35 AM 50.0 °F - 44.6 °F 82% 30.10 in 7.0 mi NE 6.9 mph - N/A   Overcast
11:55 AM 50.5 °F - 44.8 °F 81% 30.10 in 7.0 mi ENE 8.1 mph - N/A   Overcast
12:15 PM 51.1 °F - 45.1 °F 80% 30.10 in 7.0 mi NE 5.8 mph - N/A   Overcast
12:35 PM 53.2 °F - 46.6 °F 78% 30.08 in 7.0 mi ENE 8.1 mph - N/A   Overcast
12:55 PM 54.0 °F - 46.6 °F 76% 30.08 in 10.0 mi ENE 8.1 mph - N/A   Mostly Cloudy
1:15 PM 55.6 °F - 46.9 °F 73% 30.06 in 10.0 mi ENE 4.6 mph - N/A   Clear
1:35 PM 57.4 °F - 47.7 °F 70% 30.05 in 10.0 mi NNE 3.5 mph - N/A   Clear
1:55 PM 59.4 °F - 47.8 °F 66% 30.04 in 10.0 mi Calm Calm - N/A   Clear
2:15 PM 61.7 °F - 48.9 °F 63% 30.03 in 10.0 mi NE 4.6 mph - N/A   Clear
2:35 PM 61.5 °F - 48.9 °F 63% 30.01 in 10.0 mi NE 4.6 mph - N/A   Scattered Clouds
2:55 PM 63.0 °F - 49.6 °F 62% 29.98 in 10.0 mi NE 5.8 mph - N/A   Scattered Clouds
3:15 PM 64.0 °F - 50.2 °F 61% 29.98 in 10.0 mi Calm Calm - N/A   Scattered Clouds
3:35 PM 64.0 °F - 50.2 °F 61% 29.97 in 10.0 mi Calm Calm - N/A   Mostly Cloudy
3:55 PM 64.2 °F - 50.4 °F 61% 29.96 in 10.0 mi Calm Calm - N/A   Mostly Cloudy
4:15 PM 64.4 °F - 50.9 °F 62% 29.95 in 10.0 mi Calm Calm - N/A   Scattered Clouds
4:35 PM 64.4 °F - 51.3 °F 62% 29.95 in 10.0 mi Calm Calm - N/A   Mostly Cloudy
4:55 PM 65.3 °F - 51.8 °F 62% 29.95 in 2.0 mi Calm Calm - N/A   Haze
5:15 PM 65.3 °F - 53.4 °F 65% 29.95 in 10.0 mi South 5.8 mph - N/A   Overcast
5:35 PM 64.8 °F - 53.2 °F 66% 29.94 in 10.0 mi South 6.9 mph - N/A   Overcast
5:55 PM 64.2 °F - 53.1 °F 67% 29.94 in 10.0 mi SSE 5.8 mph - N/A   Overcast
6:15 PM 63.5 °F - 53.1 °F 69% 29.93 in 10.0 mi SE 5.8 mph - N/A   Overcast
6:35 PM 62.8 °F - 53.2 °F 71% 29.93 in 10.0 mi South 5.8 mph - N/A   Overcast
6:55 PM 62.6 °F - 53.6 °F 72% 29.93 in 10.0 mi SSE 6.9 mph - N/A   Overcast
7:15 PM 61.7 °F - 53.6 °F 75% 29.93 in 10.0 mi SSE 6.9 mph - N/A   Overcast
7:35 PM 61.2 °F - 53.6 °F 76% 29.93 in 10.0 mi SSE 4.6 mph - N/A   Overcast
7:55 PM 60.4 °F - 53.4 °F 78% 29.92 in 10.0 mi South 5.8 mph - N/A   Overcast
8:15 PM 59.5 °F - 53.6 °F 81% 29.92 in 10.0 mi South 3.5 mph - N/A   Overcast
8:35 PM 58.5 °F - 53.2 °F 83% 29.93 in 10.0 mi Calm Calm - N/A   Mostly Cloudy
8:55 PM 58.5 °F - 53.6 °F 84% 29.91 in 10.0 mi SE 4.6 mph - N/A   Overcast
9:15 PM 57.7 °F - 53.8 °F 87% 29.90 in 10.0 mi SE 4.6 mph - N/A   Overcast
9:35 PM 57.2 °F - 53.6 °F 88% 29.89 in 10.0 mi SE 3.5 mph - N/A   Overcast
9:55 PM 57.2 °F - 54.3 °F 90% 29.90 in 10.0 mi East 3.5 mph - N/A   Overcast
10:15 PM 57.0 °F - 54.5 °F 91% 29.90 in 7.0 mi Calm Calm - N/A   Overcast
10:35 PM 56.5 °F - 54.1 °F 92% 29.91 in 7.0 mi Calm Calm - N/A   Overcast
10:55 PM 56.5 °F - 54.5 °F 93% 29.90 in 7.0 mi Calm Calm - N/A   Overcast
11:15 PM 56.3 °F - 54.5 °F 94% 29.90 in 7.0 mi Calm Calm - N/A   Mostly Cloudy
11:55 PM 57.2 °F - 54.7 °F 91% 29.90 in 10.0 mi WNW 3.5 mph - N/A   Mostly Cloudy